Home > Weather > Aarau > Past weeks

Flag for Switzerland Weather for the Past 2 Weeks in Aarau, Aargau, Switzerland

Now
44 °F

Quite cool.


Feels Like: 44 °F
Forecast: 31 / 45 °F
Wind: 2 mph from South

Location: Wynau

Current Time: Feb 6, 2016 at 5:42:31 PM

Latest Report: Feb 6, 2016 at 5:00 PM


Visibility: N/A

Pressure: 29.98 "Hg

Humidity: 86%

Dew point: 40 °F

Location of AarauLocation

Historic Weather in Aarau — Graph

°F

Aarau Temperature Yesterday

Maximum temperature yesterday: 51 °F (at 3:00 PM)
Minimum temperature yesterday: 33 °F (at 11:00 PM)
Average temperature yesterday: 43 °F

High & Low Weather Summary for the Past Weeks

 TemperatureHumidityPressure
High56 °F (Feb 1, 3:00 PM)100% (Jan 23, 7:00 PM)30.71 "Hg (Jan 23, 7:00 PM)
Low27 °F (Jan 24, 2:00 AM)45% (Jan 30, 3:00 PM)30.00 "Hg (Jan 31, 2:00 PM)
Average41 °F87%30.38 "Hg
* Reported Jan 22 4:00 PM — Feb 6 4:00 PM, Aarau, Weather by CustomWeather, © 2016

Note: Actual official high and low records may vary slightly from our data, if they occured in-between our weather recording intervals... More about our weather records

Advertising

Aarau Weather History for the Previous 24 Hours

 ConditionsComfort  
Time TempWeatherWind HumidityBarometerVisibility
4:00 PM
Sat, Feb 6
48 °FCool.5 mph67%30.00 "HgN/A
3:00 PM47 °FCool.5 mph76%30.04 "HgN/A
2:00 PM43 °FQuite cool.2 mph86%30.10 "HgN/A
1:00 PM41 °FQuite cool.3 mph89%30.15 "HgN/A
12:00 PM39 °FChilly.3 mph93%30.20 "HgN/A
11:00 AM37 °FChilly.5 mph95%30.23 "HgN/A
10:00 AM36 °FChilly.3 mph97%30.24 "HgN/A
9:00 AM35 °FChilly.5 mph98%30.24 "HgN/A
8:00 AM35 °FChilly.3 mph99%30.23 "HgN/A
7:00 AM33 °FChilly.2 mph99%30.24 "HgN/A
6:00 AM34 °FChilly.5 mph98%30.24 "HgN/A
5:00 AM35 °FChilly.5 mph98%30.26 "HgN/A
4:00 AM35 °FChilly.5 mph99%30.26 "HgN/A
3:00 AM36 °FChilly.3 mph100%30.27 "HgN/A
2:00 AM33 °FChilly.1 mph100%30.29 "HgN/A
1:00 AM33 °FChilly.1 mph100%30.31 "HgN/A
12:00 AM33 °FChilly.1 mph100%30.32 "HgN/A
11:00 PM
Fri, Feb 5
33 °FChilly.1 mph100%30.32 "HgN/A
9:00 PM38 °FChilly.1 mph100%30.31 "HgN/A
8:00 PM39 °FChilly.1 mph100%30.32 "HgN/A
7:00 PM40 °FQuite cool.1 mph98%30.32 "HgN/A
6:00 PM42 °FQuite cool.1 mph97%30.31 "HgN/A
5:00 PM45 °FCool.2 mph93%30.31 "HgN/A
Weather by CustomWeather, © 2016

See weather overviewHow to use our weather pages